Find Zhongxing 18

NORAD ID: 44493 Int'l Des: 2019-053 Owner: ZLZB Country: CN operational
MEOELLIPTICALHEO_ELLIPTICAL

リアルタイム位置

3D地球を読み込み中...

Zhongxing 18について

説明を読み込み中...

次回通過

Passes for default location (London). Set your location on the main map for personalized predictions.

高度履歴

Loading altitude history...

軌道要素

1 44493U 19053A 26103.19462505 .00018277 66110-6 24593-3 0 9997
2 44493 28.4655 65.6794 6254785 263.7004 26.6278 3.75664667 67422
Epoch: Apr 13, 2026 • Age: 48 hours

現在のステータス

高度 21844.9 km
速度 2.33 km/s
衛星直下点 28.48°N, 114.05°W
打ち上げ日 Aug 19, 2019
運用期間 6.6 years
タイプ other

技術仕様

分類 Payload
質量 5250.00 kg
乾燥質量 2500.00 kg
総質量 5250.00 kg
長さ 5.00 m
直径 2.50 m
スパン 30.00 m
形状 Box + 2 Pan
製造者 CAST
バスタイプ DFH-4
フェーズステータス In Orbit
所有者/国 ZLZB/CN

Most Searched